Powrót do katalogu

COSMOS 249 DEB

AktywnyUNKNOWN
NORAD 3506·DEBRIS·🇷🇺 Russia

Wystrzelony Oct 20, 1968 z Baikonur Cosmodrome

Loading…

Następne Przeloty (najbliższe 24 godziny)

TLE

ŚwieżeSource: Space-Track

Epoka: Sep 14, 2026, 19:05 UTC

1 03506U 68091C   26257.79547382 -.00000006  00000-0  45453-4 0  9997
2 03506  62.3723  39.1368 0940539 282.4829  67.2630 12.91135205718058

Śledź COSMOS 249 DEB w czasie rzeczywistym z AllMySat

Download on the App Store